[[{"header":{"parameterUnit":"m.s-1","parameterCategory":1,"la1":30.2991,"la2":30.254,"lo1":-89.0895,"lo2":-89.0444,"dy":0.0017,"dx":0.0017,"nx":28,"ny":28,"refTime":"2024-10-10T21:00:00:Z","depth":0,"parameterNumber":2,"parameterNumberName":"U-component_of_WINDS"},"data":[0,0,0,0,0,0,0,0,0,0,0,0,0,0,0,0,0,0,0,0,0,0,0,0,0,0,0,0,0,0,0,0,0,0,0,0,0,0,0,0,0,0,0,0,0,0,0,0,0,0,0,0,0,0,0,0,0,0,-2.5168,-2.5168,0,-2.5246,-2.5247,-2.5248,-2.5153,-2.515,-2.5146,-2.5143,-2.5225,-2.523,-2.5236,0,0,0,0,0,0,0,0,0,0,0,0,0,-2.4938,-2.4943,-2.5168,-2.5169,-2.517,-2.5246,-2.5247,-2.5248,-2.5154,-2.5149,-2.5145,-2.5141,-2.5223,-2.523,-2.5236,0,0,0,0,0,0,0,0,0,0,0,0,0,-2.5029,-2.4944,-2.5167,-2.5132,-2.5129,-2.5245,-2.5247,-2.5248,-2.5155,-2.5149,-2.5144,-2.5139,-2.5221,-2.5229,-2.5237,-2.5393,0,0,-2.5262,-2.5266,0,0,0,0,0,0,0,0,-2.5024,-2.5038,-2.5136,-2.5134,-2.5132,-2.5184,-2.5196,-2.5297,-2.5156,-2.5145,-2.5143,-2.5137,-2.5216,-2.5224,-2.5251,-2.5397,-2.54,-2.5263,-2.5268,-2.5271,-2.5274,0,0,0,0,0,0,0,-2.5018,-2.5034,-2.5198,-2.5138,-2.5135,-2.5112,-2.5119,-2.5215,-2.5209,-2.5146,-2.5139,-2.5149,-2.5214,-2.5243,-2.5252,-2.5402,-2.5263,-2.527,-2.5275,-2.5278,-2.5679,-2.5685,0,0,0,0,0,0,-2.5016,-2.5029,-2.5196,-2.5201,-2.5064,-2.5121,-2.5129,-2.5173,-2.5208,-2.5208,-2.5154,-2.5145,-2.5231,-2.5242,-2.5254,-2.5439,-2.5271,-2.5279,-2.5284,-2.5673,-2.568,-2.5687,0,0,0,0,0,0,-2.5011,-2.5031,-2.5193,-2.5113,-2.5132,-2.513,-2.5181,-2.5177,-2.5206,-2.5214,-2.5213,-2.5184,-2.5228,-2.5243,-2.5359,-2.5441,-2.5283,-2.529,-2.5667,-2.5676,-2.5684,-2.5811,0,0,0,0,0,0,-2.5005,-2.503,-2.5089,-2.5115,-2.5137,-2.5297,-2.5186,-2.5182,-2.522,-2.5209,-2.5242,-2.5243,-2.5225,-2.5347,-2.5367,-2.5449,-2.5297,-2.5659,-2.5671,-2.5681,-2.5799,-2.5823,-2.5843,0,0,0,0,0,-2.4997,-2.5123,-2.5093,-2.5114,-2.521,-2.5301,-2.5314,-2.529,-2.5227,-2.5287,-2.5291,-2.5242,-2.5428,-2.536,-2.5382,-2.5467,-2.5654,-2.5668,-2.568,-2.579,-2.5818,-2.5842,0,0,0,0,0,0,-2.5108,-2.5125,-2.5093,-2.523,-2.5265,-2.5285,-2.536,-2.5321,-2.5374,-2.5362,-2.533,-2.5339,-2.5463,-2.5476,-2.54,-2.562,-2.5531,-2.5549,-2.5607,-2.5634,-2.5655,-2.565,-2.5303,0,0,0,0,0,-2.5148,-2.5219,-2.5231,-2.5352,-2.537,-2.5362,-2.5401,-2.5379,-2.5414,-2.5429,-2.5442,-2.5479,-2.5545,-2.559,-2.5651,-2.58,-2.5806,-2.5869,-2.5891,-2.5909,-2.5925,-2.6005,-2.6033,-2.5729,-2.5729,-2.5729,0,0,-2.5232,-2.525,-2.5298,-2.5374,-2.5399,-2.5474,-2.5375,-2.546,-2.5516,-2.5442,-2.5553,-2.5563,-2.5602,-2.5735,-2.5794,-2.575,-2.601,-2.5925,-2.5939,-2.5946,-2.6021,-2.605,-2.6076,-2.5738,-2.5736,-2.5735,0,0,-2.5425,-2.5445,-2.5548,-2.5574,-2.5611,-2.5605,-2.563,-2.5656,-2.566,-2.577,-2.5716,-2.5782,-2.5897,-2.5927,-2.5957,-2.6159,-2.6116,-2.618,-2.6294,-2.6372,-2.6396,-2.6417,-2.6491,-2.6517,-2.6196,-2.6196,-2.6196,0,-2.5525,-2.5636,-2.5606,-2.5694,-2.573,-2.5664,-2.5768,-2.5795,-2.5851,-2.5878,-2.5827,-2.597,-2.5991,-2.613,-2.6179,-2.6205,-2.6233,-2.6177,-2.6395,-2.6416,-2.6435,-2.6505,-2.6532,-2.6204,-2.6203,-2.6202,-2.6202,0,-2.5759,-2.5837,-2.5915,-2.597,-2.6014,-2.611,-2.6094,-2.6142,-2.6116,-2.6115,-2.6228,-2.625,-2.6316,-2.6346,-2.6322,-2.6483,-2.6454,-2.64,-2.631,-2.6473,-2.6537,-2.6564,-2.6215,-2.6212,-2.621,-2.6208,0,0,-2.6026,-2.6061,-2.6091,-2.6115,-2.615,-2.6211,-2.6303,-2.6366,-2.6408,-2.6448,-2.6526,-2.6624,-2.6574,-2.6608,-2.6586,-2.6654,-2.6814,-2.6592,-2.6592,-2.6633,-2.6993,-2.7035,-2.7066,-2.6784,-2.6789,-2.6793,-2.699,0,-2.622,-2.6379,-2.6354,-2.6509,-2.6581,-2.6519,-2.6599,-2.663,-2.6631,-2.6692,-2.6693,-2.6764,-2.6692,-2.6712,-2.6776,-2.6781,-2.6886,-2.6766,-2.6857,-2.6861,-2.6852,-2.71,-2.7145,-2.733,-2.7015,-2.7019,-2.7023,0,-2.6468,-2.6517,-2.6679,-2.6702,-2.6732,-2.6805,-2.686,-2.6919,-2.6952,-2.6948,-2.6986,-2.6951,-2.7043,-2.6951,-2.7078,-2.6997,-2.7032,-2.704,-2.7047,-2.7056,-2.6953,-2.7118,-2.7388,-2.7417,-2.7062,-2.7059,-2.7056,0,-2.6648,-2.6754,-2.6864,-2.6887,-2.6917,-2.697,-2.6985,-2.7013,-2.7052,-2.71,-2.7126,-2.7184,-2.7217,-2.7263,-2.7245,-2.7179,-2.7377,-2.7282,-2.7377,-2.7378,-2.7423,-2.7421,-2.7705,-2.7443,-2.7443,-2.7442,-2.7442,0,-2.6869,-2.6971,-2.6946,-2.7014,-2.7126,-2.7096,-2.7208,-2.7215,-2.7241,-2.731,-2.7259,-2.7325,-2.7296,-2.736,-2.7346,-2.7455,-2.7469,-2.7469,-2.7465,-2.7475,-2.7475,-2.7499,-2.7487,-2.7449,-2.7448,-2.7446,-2.7445,0,-2.7091,-2.7078,-2.7194,-2.7213,-2.722,-2.7302,-2.7318,-2.7382,-2.7377,-2.7466,-2.7484,-2.7479,-2.7551,-2.7537,-2.7617,-2.7608,-2.7744,-2.7723,-2.7733,-2.7729,-2.7825,-2.7817,-2.8136,-2.8177,-2.7887,-2.7889,-2.7892,0,-2.7233,-2.731,-2.7336,-2.7378,-2.7397,-2.7466,-2.7505,-2.7477,-2.752,-2.7563,-2.7623,-2.769,-2.7743,-2.7862,-2.7866,-2.7927,-2.7907,-2.8015,-2.7917,-2.7924,-2.7911,-2.7908,-2.7915,-2.8036,-2.8039,-2.8042,-2.8044,0,-2.7488,-2.7478,-2.7536,-2.7593,-2.7641,-2.7684,-2.7722,-2.776,-2.7735,-2.7786,-2.7859,-2.79,-2.7981,-2.8049,-2.8106,-2.8121,-2.808,-2.8074,-2.81,-2.8112,-2.8116,-2.8116,-2.7788,-2.8068,-2.8065,-2.8064,-2.8062,-2.8061,-2.7676,-2.7741,-2.777,-2.7836,-2.7862,-2.7899,-2.796,-2.7963,-2.8023,-2.8086,-2.8066,-2.8149,-2.818,-2.8251,-2.8273,-2.8338,-2.8298,-2.8335,-2.8345,-2.8355,-2.8367,-2.8103,-2.8348,-2.8348,-2.8347,-2.8346,-2.8346,0,-2.793,-2.7944,-2.8006,-2.8061,-2.8113,-2.8066,-2.8106,-2.8154,-2.8227,-2.8259,-2.8312,-2.8396,-2.8461,-2.8469,-2.8531,-2.8582,-2.8564,-2.8599,-2.8596,-2.8601,-2.8398,-2.8371,-2.8612,-2.8612,-2.8612,-2.8612,-2.8612,-2.8612,-2.8068,-2.8176,-2.8169,-2.8289,-2.8303,-2.8384,-2.8411,-2.8445,-2.847,-2.8566,-2.8619,-2.8623,-2.8646,-2.8708,-2.8767,-2.8767,-2.8793,-2.8836,-2.883,-2.8641,-2.8615,-2.859,-2.8564,-2.8842,-2.8842,-2.9026,-2.9028,-2.903]},{"header":{"parameterUnit":"m.s-1","parameterCategory":1,"la1":30.2991,"la2":30.254,"lo1":-89.0895,"lo2":-89.0444,"dy":0.0017,"dx":0.0017,"nx":28,"ny":28,"refTime":"2024-10-10T21:00:00:Z","depth":0,"parameterNumber":3,"parameterNumberName":"V-component_of_WINDS"},"data":[0,0,0,0,0,0,0,0,0,0,0,0,0,0,0,0,0,0,0,0,0,0,0,0,0,0,0,0,0,0,0,0,0,0,0,0,0,0,0,0,0,0,0,0,0,0,0,0,0,0,0,0,0,0,0,0,0,0,-3.0945,-3.0945,0,-3.0915,-3.0915,-3.0914,-3.0863,-3.0862,-3.0861,-3.086,-3.0828,-3.0828,-3.0828,0,0,0,0,0,0,0,0,0,0,0,0,0,-3.0956,-3.0956,-3.0945,-3.0945,-3.0945,-3.0915,-3.0915,-3.0914,-3.0863,-3.0862,-3.0861,-3.086,-3.0828,-3.0828,-3.0828,0,0,0,0,0,0,0,0,0,0,0,0,0,-3.0941,-3.0956,-3.0945,-3.0916,-3.0913,-3.0915,-3.0915,-3.0914,-3.0863,-3.0862,-3.0861,-3.0859,-3.0828,-3.0828,-3.0828,-3.0857,0,0,-3.0828,-3.0828,0,0,0,0,0,0,0,0,-3.0942,-3.094,-3.092,-3.0918,-3.0914,-3.0891,-3.0906,-3.0895,-3.0864,-3.0882,-3.086,-3.0859,-3.085,-3.0848,-3.0846,-3.0855,-3.0854,-3.0828,-3.0828,-3.0828,-3.0828,0,0,0,0,0,0,0,-3.0943,-3.0941,-3.0933,-3.092,-3.0916,-3.0903,-3.0899,-3.0904,-3.0874,-3.088,-3.0877,-3.0874,-3.0848,-3.0846,-3.0844,-3.0853,-3.0828,-3.0828,-3.0828,-3.0828,-3.0881,-3.0882,0,0,0,0,0,0,-3.0949,-3.0943,-3.0934,-3.0932,-3.0925,-3.0904,-3.0899,-3.09,-3.0874,-3.0869,-3.0875,-3.0871,-3.0846,-3.0845,-3.0843,-3.0872,-3.0828,-3.0828,-3.0828,-3.088,-3.0881,-3.0883,0,0,0,0,0,0,-3.0949,-3.0948,-3.0935,-3.0936,-3.0934,-3.0905,-3.0906,-3.09,-3.0898,-3.087,-3.0864,-3.0878,-3.0845,-3.0843,-3.0853,-3.0871,-3.0828,-3.0828,-3.0878,-3.088,-3.0882,-3.0933,0,0,0,0,0,0,-3.0949,-3.0949,-3.096,-3.0937,-3.0934,-3.0947,-3.0907,-3.0901,-3.0898,-3.0893,-3.0872,-3.0867,-3.0844,-3.0853,-3.0853,-3.087,-3.0828,-3.0876,-3.0879,-3.0881,-3.093,-3.0937,-3.0942,0,0,0,0,0,-3.095,-3.0976,-3.0961,-3.0961,-3.0948,-3.0948,-3.0946,-3.092,-3.09,-3.091,-3.0892,-3.0867,-3.0869,-3.0855,-3.0854,-3.0871,-3.0875,-3.0878,-3.0881,-3.0927,-3.0935,-3.0942,0,0,0,0,0,0,-3.1003,-3.0973,-3.0956,-3.0976,-3.0965,-3.094,-3.0952,-3.093,-3.0925,-3.092,-3.0887,-3.0883,-3.0896,-3.0885,-3.0869,-3.0896,-3.0868,-3.0871,-3.0903,-3.091,-3.0917,-3.0919,-3.0828,0,0,0,0,0,-3.1017,-3.102,-3.0994,-3.1014,-3.1009,-3.0982,-3.0981,-3.0961,-3.0949,-3.0944,-3.0926,-3.0914,-3.0911,-3.0911,-3.0907,-3.0928,-3.0921,-3.0939,-3.0946,-3.0951,-3.0954,-3.096,-3.0967,-3.0893,-3.0893,-3.0893,0,0,-3.1046,-3.103,-3.1034,-3.1024,-3.1013,-3.1016,-3.0978,-3.0984,-3.0985,-3.0944,-3.0952,-3.0939,-3.0923,-3.0937,-3.0943,-3.0928,-3.0972,-3.0955,-3.096,-3.0959,-3.0964,-3.0971,-3.0978,-3.0895,-3.0895,-3.0894,0,0,-3.1099,-3.1089,-3.1103,-3.1092,-3.1076,-3.1057,-3.1061,-3.1038,-3.1028,-3.1035,-3.1004,-3.1004,-3.1001,-3.099,-3.0984,-3.1031,-3.1006,-3.103,-3.1064,-3.1071,-3.1076,-3.1081,-3.1095,-3.1101,-3.1033,-3.1034,-3.1034,0,-3.1137,-3.1141,-3.1113,-3.1119,-3.1114,-3.1077,-3.109,-3.1081,-3.1065,-3.1061,-3.1045,-3.1039,-3.1026,-3.1036,-3.1047,-3.1044,-3.1045,-3.1032,-3.1078,-3.1083,-3.1087,-3.11,-3.1105,-3.1036,-3.1036,-3.1036,-3.1035,0,-3.1186,-3.1189,-3.1202,-3.1186,-3.1183,-3.1193,-3.1165,-3.1165,-3.1145,-3.1127,-3.1133,-3.1116,-3.1107,-3.1108,-3.1089,-3.1114,-3.1105,-3.1084,-3.1055,-3.1097,-3.1108,-3.1113,-3.104,-3.1039,-3.1039,-3.1038,0,0,-3.1273,-3.124,-3.1245,-3.1236,-3.1214,-3.1215,-3.1222,-3.1213,-3.1212,-3.1202,-3.1205,-3.1202,-3.1181,-3.1175,-3.1154,-3.1161,-3.1195,-3.1138,-3.1137,-3.1147,-3.1217,-3.1232,-3.1238,-3.1179,-3.118,-3.118,-3.1218,0,-3.132,-3.133,-3.1304,-3.132,-3.132,-3.1284,-3.129,-3.1276,-3.126,-3.1256,-3.1238,-3.1235,-3.121,-3.1205,-3.121,-3.119,-3.1208,-3.1187,-3.1179,-3.1179,-3.1183,-3.1245,-3.1261,-3.1297,-3.1222,-3.1223,-3.1224,0,-3.1377,-3.1368,-3.1384,-3.1359,-3.1358,-3.1364,-3.1351,-3.135,-3.1333,-3.132,-3.1311,-3.1286,-3.1289,-3.1262,-3.1264,-3.125,-3.1245,-3.1235,-3.1236,-3.1232,-3.1203,-3.1241,-3.1308,-3.1313,-3.1231,-3.123,-3.123,0,-3.1435,-3.1427,-3.1435,-3.1429,-3.14,-3.1404,-3.1393,-3.1374,-3.1369,-3.1359,-3.1354,-3.1344,-3.1338,-3.133,-3.1302,-3.1286,-3.1306,-3.1278,-3.1294,-3.1294,-3.1299,-3.1298,-3.1364,-3.1299,-3.1299,-3.1299,-3.1299,0,-3.1489,-3.15,-3.146,-3.1465,-3.1475,-3.1444,-3.1454,-3.1438,-3.1422,-3.1421,-3.139,-3.139,-3.1354,-3.135,-3.1328,-3.1331,-3.133,-3.1317,-3.1311,-3.1319,-3.132,-3.1314,-3.131,-3.13,-3.13,-3.13,-3.13,0,-3.1555,-3.153,-3.1535,-3.1507,-3.15,-3.1508,-3.1484,-3.1486,-3.1466,-3.1466,-3.1464,-3.1433,-3.1426,-3.1398,-3.1384,-3.137,-3.1379,-3.1368,-3.1384,-3.138,-3.1396,-3.1394,-3.1458,-3.1464,-3.1398,-3.1399,-3.14,0,-3.1591,-3.1598,-3.157,-3.1567,-3.1557,-3.1554,-3.1548,-3.1517,-3.1512,-3.1492,-3.1495,-3.1486,-3.1476,-3.1466,-3.1441,-3.143,-3.1417,-3.144,-3.1415,-3.1422,-3.1414,-3.1413,-3.1412,-3.1445,-3.1446,-3.1447,-3.1448,0,-3.1655,-3.1641,-3.1635,-3.1623,-3.1618,-3.1607,-3.1594,-3.1594,-3.1559,-3.1555,-3.1547,-3.1539,-3.1524,-3.1514,-3.1498,-3.1484,-3.1459,-3.1456,-3.1458,-3.1466,-3.1474,-3.1467,-3.1397,-3.1454,-3.1454,-3.1453,-3.1453,-3.1452,-3.1705,-3.1708,-3.1689,-3.1682,-3.1669,-3.1657,-3.1657,-3.1637,-3.163,-3.1615,-3.1597,-3.1591,-3.157,-3.1546,-3.1534,-3.1527,-3.1514,-3.1518,-3.1519,-3.152,-3.1523,-3.1476,-3.1524,-3.1524,-3.1524,-3.1524,-3.1524,0,-3.1766,-3.1751,-3.1745,-3.1728,-3.1721,-3.1699,-3.1683,-3.1679,-3.1674,-3.1658,-3.1648,-3.1637,-3.1627,-3.1601,-3.1587,-3.1586,-3.1574,-3.1583,-3.1582,-3.1579,-3.1537,-3.1535,-3.1593,-3.1593,-3.1593,-3.1593,-3.1593,-3.1593,-3.1797,-3.18,-3.1784,-3.178,-3.1764,-3.1758,-3.175,-3.1738,-3.1725,-3.1714,-3.1705,-3.1688,-3.1667,-3.1651,-3.1639,-3.1631,-3.1627,-3.1639,-3.1628,-3.1589,-3.1582,-3.1576,-3.1574,-3.1639,-3.1639,-3.167,-3.167,-3.167]}]]